When you browse on this site, cookies collect data to enhance your experience and personalize the content and advertising you see.
Visit our Privacy Policy to learn more. By continuing to use the site, you agree to this use of cookies and data.
  • En España
  • Lista de países
  • Para 7 días
  • Temperatura del agua
  • Mapa Satelital
  • El tiempo en el mapa
  • Informadores
  • user-avatar
    Iniciar sesión

    Tiempo cada hora Barra

    Hoy, 20 Abril, Sábado

    Tiempo Temperatura Precipitaciones Viento Presión Humedad
    00:00 +22°C° 0.3 mm 4 mps 750 mmHg 94%
    01:00 +22°C° 0.3 mm 4 mps 750 mmHg 95%
    02:00 +22°C° 0.2 mm 4 mps 749 mmHg 95%
    03:00 +21°C° 0.2 mm 4 mps 749 mmHg 95%
    04:00 +21°C° 0 mm 4 mps 749 mmHg 95%
    05:00 +21°C° 0.1 mm 4 mps 749 mmHg 94%
    06:00 +21°C° 0.1 mm 4 mps 749 mmHg 94%
    07:00 +21°C° 0.1 mm 4 mps 749 mmHg 93%
    08:00 +22°C° 0.1 mm 4 mps 750 mmHg 85%
    09:00 +25°C° 0.1 mm 4 mps 750 mmHg 76%
    10:00 +27°C° 0 mm 4 mps 750 mmHg 66%
    11:00 +28°C° 0 mm 4 mps 750 mmHg 64%
    12:00 +29°C° 0 mm 4 mps 749 mmHg 61%
    13:00 +29°C° 0 mm 5 mps 749 mmHg 58%
    14:00 +29°C° 0 mm 4 mps 748 mmHg 60%
    15:00 +29°C° 0 mm 4 mps 748 mmHg 61%
    16:00 +28°C° 0 mm 4 mps 747 mmHg 63%
    17:00 +27°C° 0 mm 3 mps 748 mmHg 71%
    18:00 +25°C° 0 mm 3 mps 748 mmHg 78%
    19:00 +24°C° 0 mm 3 mps 748 mmHg 85%
    20:00 +22°C° 0 mm 3 mps 749 mmHg 87%
    21:00 +22°C° 0 mm 3 mps 749 mmHg 89%
    22:00 +22°C° 0 mm 3 mps 749 mmHg 91%
    23:00 +22°C° 0.1 mm 3 mps 749 mmHg 92%

    Mañana, 21 Abril, Domingo

    Tiempo Temperatura Precipitaciones Viento Presión Humedad
    00:00 +22°C° 0.1 mm 3 mps 749 mmHg 93%
    01:00 +22°C° 0.1 mm 3 mps 749 mmHg 94%
    02:00 +22°C° 0.1 mm 3 mps 748 mmHg 94%
    03:00 +22°C° 0.1 mm 3 mps 748 mmHg 94%
    04:00 +22°C° 0.1 mm 3 mps 748 mmHg 95%
    05:00 +22°C° 0.2 mm 3 mps 748 mmHg 94%
    06:00 +22°C° 0.2 mm 3 mps 748 mmHg 93%
    07:00 +22°C° 0.2 mm 3 mps 749 mmHg 92%
    08:00 +24°C° 0.1 mm 3 mps 749 mmHg 87%
    09:00 +25°C° 0.1 mm 4 mps 749 mmHg 83%
    10:00 +27°C° 0.1 mm 4 mps 749 mmHg 79%
    11:00 +27°C° 0.3 mm 4 mps 748 mmHg 78%
    12:00 +28°C° 0.3 mm 4 mps 748 mmHg 77%
    13:00 +29°C° 0.3 mm 4 mps 748 mmHg 76%
    14:00 +28°C° 0.7 mm 4 mps 747 mmHg 79%
    15:00 +28°C° 0.7 mm 4 mps 747 mmHg 83%
    16:00 +27°C° 0.7 mm 4 mps 747 mmHg 86%
    17:00 +26°C° 1.1 mm 4 mps 747 mmHg 89%
    18:00 +25°C° 1.1 mm 4 mps 748 mmHg 91%
    19:00 +24°C° 1.1 mm 3 mps 748 mmHg 94%
    20:00 +23°C° 1.6 mm 4 mps 748 mmHg 95%
    21:00 +23°C° 1.6 mm 4 mps 749 mmHg 95%
    22:00 +23°C° 1.6 mm 4 mps 749 mmHg 96%
    23:00 +23°C° 1.4 mm 4 mps 749 mmHg 96%

    Pasado mañana, 22 Abril, Lunes

    Tiempo Temperatura Precipitaciones Viento Presión Humedad
    00:00 +23°C° 1.4 mm 4 mps 749 mmHg 96%
    01:00 +23°C° 1.4 mm 4 mps 748 mmHg 96%
    02:00 +23°C° 1.1 mm 4 mps 748 mmHg 97%
    03:00 +23°C° 1.1 mm 4 mps 748 mmHg 97%
    04:00 +23°C° 1.1 mm 4 mps 748 mmHg 97%
    05:00 +23°C° 1.3 mm 4 mps 748 mmHg 97%
    06:00 +23°C° 1.3 mm 4 mps 748 mmHg 97%
    07:00 +23°C° 1.3 mm 4 mps 749 mmHg 97%
    08:00 +25°C° 1.3 mm 4 mps 749 mmHg 95%
    09:00 +25°C° 1.3 mm 4 mps 750 mmHg 94%
    10:00 +26°C° 1.3 mm 4 mps 750 mmHg 92%
    11:00 +26°C° 1.3 mm 4 mps 749 mmHg 91%
    12:00 +27°C° 1.3 mm 4 mps 749 mmHg 90%
    13:00 +27°C° 1.3 mm 4 mps 749 mmHg 88%
    14:00 +27°C° 1.4 mm 4 mps 748 mmHg 89%
    15:00 +26°C° 1.4 mm 3 mps 748 mmHg 90%
    16:00 +26°C° 1.4 mm 3 mps 748 mmHg 91%
    17:00 +26°C° 1.4 mm 3 mps 748 mmHg 93%
    18:00 +25°C° 1.4 mm 3 mps 749 mmHg 94%
    19:00 +24°C° 1.4 mm 3 mps 749 mmHg 96%
    20:00 +24°C° 1.2 mm 3 mps 749 mmHg 96%
    21:00 +24°C° 1.2 mm 3 mps 750 mmHg 96%
    22:00 +24°C° 1.2 mm 3 mps 750 mmHg 97%
    23:00 +23°C° 1.1 mm 4 mps 750 mmHg 97%

    23 Abril, Martes

    Tiempo Temperatura Precipitaciones Viento Presión Humedad
    00:00 +23°C° 1.1 mm 4 mps 749 mmHg 97%
    01:00 +23°C° 1.1 mm 4 mps 749 mmHg 97%
    02:00 +23°C° 1.2 mm 4 mps 749 mmHg 97%
    03:00 +23°C° 1.2 mm 4 mps 749 mmHg 97%
    04:00 +23°C° 1.2 mm 4 mps 749 mmHg 97%
    05:00 +23°C° 1.5 mm 4 mps 749 mmHg 97%
    06:00 +23°C° 1.5 mm 4 mps 749 mmHg 96%
    07:00 +23°C° 1.5 mm 4 mps 750 mmHg 96%
    08:00 +25°C° 1.1 mm 4 mps 750 mmHg 95%
    09:00 +25°C° 1.1 mm 4 mps 751 mmHg 94%
    10:00 +26°C° 1.1 mm 4 mps 751 mmHg 93%
    11:00 +26°C° 0.4 mm 4 mps 751 mmHg 89%
    12:00 +27°C° 0.4 mm 4 mps 750 mmHg 86%
    13:00 +27°C° 0.4 mm 4 mps 750 mmHg 82%
    14:00 +27°C° 0.1 mm 4 mps 749 mmHg 81%
    15:00 +27°C° 0.1 mm 4 mps 749 mmHg 79%
    16:00 +27°C° 0.1 mm 4 mps 748 mmHg 78%
    17:00 +26°C° 0.1 mm 4 mps 749 mmHg 82%
    18:00 +25°C° 0.1 mm 4 mps 749 mmHg 86%
    19:00 +25°C° 0.1 mm 4 mps 750 mmHg 90%
    20:00 +24°C° 0.2 mm 3 mps 750 mmHg 92%
    21:00 +24°C° 0.2 mm 3 mps 750 mmHg 94%
    22:00 +24°C° 0.2 mm 3 mps 751 mmHg 96%
    23:00 +24°C° 0.4 mm 3 mps 750 mmHg 96%

    24 Abril, Miércoles

    Tiempo Temperatura Precipitaciones Viento Presión Humedad
    00:00 +24°C° 0.4 mm 3 mps 750 mmHg 97%
    01:00 +24°C° 0.4 mm 3 mps 750 mmHg 97%
    02:00 +24°C° 0.3 mm 3 mps 749 mmHg 97%
    03:00 +24°C° 0.3 mm 3 mps 749 mmHg 97%
    04:00 +24°C° 0.3 mm 3 mps 749 mmHg 97%
    05:00 +23°C° 0.2 mm 4 mps 749 mmHg 97%
    06:00 +23°C° 0.2 mm 4 mps 750 mmHg 97%
    07:00 +23°C° 0.2 mm 4 mps 750 mmHg 97%
    08:00 +23°C° 0.1 mm 4 mps 750 mmHg 94%
    09:00 +25°C° 0.1 mm 4 mps 751 mmHg 90%
    10:00 +26°C° 0.1 mm 4 mps 751 mmHg 87%
    11:00 +27°C° 0.2 mm 4 mps 750 mmHg 80%
    12:00 +28°C° 0.2 mm 5 mps 750 mmHg 74%
    13:00 +30°C° 0.2 mm 5 mps 749 mmHg 67%
    14:00 +29°C° 0 mm 5 mps 749 mmHg 68%
    15:00 +29°C° 0 mm 5 mps 749 mmHg 68%
    16:00 +29°C° 0 mm 4 mps 748 mmHg 69%
    17:00 +28°C° 0.1 mm 4 mps 749 mmHg 77%
    18:00 +26°C° 0.1 mm 4 mps 749 mmHg 85%
    19:00 +25°C° 0.1 mm 4 mps 750 mmHg 93%
    20:00 +25°C° 0.6 mm 4 mps 750 mmHg 93%
    21:00 +25°C° 0.6 mm 4 mps 750 mmHg 94%
    22:00 +23°C° 0.6 mm 4 mps 751 mmHg 95%
    23:00 +23°C° 0.8 mm 4 mps 750 mmHg 95%

    25 Abril, Jueves

    Tiempo Temperatura Precipitaciones Viento Presión Humedad
    00:00 +23°C° 0.8 mm 4 mps 750 mmHg 95%
    01:00 +23°C° 0.8 mm 4 mps 749 mmHg 96%
    02:00 +23°C° 1.1 mm 4 mps 749 mmHg 96%
    03:00 +23°C° 1.1 mm 4 mps 749 mmHg 96%
    04:00 +23°C° 1.1 mm 4 mps 749 mmHg 96%
    05:00 +23°C° 0.8 mm 4 mps 749 mmHg 96%
    06:00 +23°C° 0.8 mm 4 mps 749 mmHg 96%
    07:00 +23°C° 0.8 mm 4 mps 750 mmHg 96%
    08:00 +23°C° 0.7 mm 5 mps 750 mmHg 95%
    09:00 +25°C° 0.7 mm 5 mps 750 mmHg 93%
    10:00 +25°C° 0.7 mm 5 mps 750 mmHg 92%
    11:00 +26°C° 0.8 mm 5 mps 750 mmHg 90%
    12:00 +26°C° 0.8 mm 5 mps 749 mmHg 88%
    13:00 +27°C° 0.8 mm 5 mps 749 mmHg 85%
    14:00 +27°C° 1.1 mm 5 mps 748 mmHg 87%
    15:00 +26°C° 1.1 mm 5 mps 748 mmHg 89%
    16:00 +26°C° 1.1 mm 5 mps 748 mmHg 90%
    17:00 +25°C° 1.3 mm 5 mps 748 mmHg 92%
    18:00 +25°C° 1.3 mm 5 mps 749 mmHg 94%
    19:00 +23°C° 1.3 mm 5 mps 749 mmHg 96%
    20:00 +23°C° 1.6 mm 5 mps 750 mmHg 96%
    21:00 +23°C° 1.6 mm 5 mps 750 mmHg 96%
    22:00 +23°C° 1.6 mm 5 mps 750 mmHg 96%
    23:00 +23°C° 1.3 mm 5 mps 750 mmHg 96%
    Mostrar más